| time (UTC) | temp C | wind direction | speed KPH | gust KPH | rain 1hr cm | rain 24hr cm | rain mn cm | humidity % | barometer mb |
| 20260503035517 | 4 | 185 | 6.4 | 9.7 | 0.00 | 0.00 | 0.00 | 56 | 1022.4 |
| 20260503034517 | 5 | 152 | 9.7 | 12.9 | 0.00 | 0.00 | 0.00 | 51 | 1022.2 |
| 20260503033517 | 4 | 169 | 11.3 | 14.5 | 0.00 | 0.00 | 0.00 | 50 | 1022.4 |
| 20260503032604 | 4 | 153 | 11.3 | 12.9 | 0.00 | 0.00 | 0.00 | 50 | 1022.3 |
| 20260503031521 | 3 | 156 | 11.3 | 16.1 | 0.00 | 0.00 | 0.00 | 52 | 1022.4 |
| 20260503030517 | 4 | 156 | 9.7 | 12.9 | 0.00 | 0.00 | 0.00 | 49 | 1022.2 |
| 20260503025518 | 4 | 155 | 11.3 | 14.5 | 0.00 | 0.00 | 0.00 | 49 | 1022.1 |
| 20260503024518 | 4 | 157 | 9.7 | 11.3 | 0.00 | 0.00 | 0.00 | 49 | 1022.0 |
| 20260503023518 | 4 | 160 | 8.0 | 11.3 | 0.00 | 0.00 | 0.00 | 52 | 1021.9 |
| 20260503022519 | 5 | 161 | 8.0 | 9.7 | 0.00 | 0.00 | 0.00 | 52 | 1021.8 |
| 20260503021519 | 6 | 173 | 8.0 | 9.7 | 0.00 | 0.00 | 0.00 | 47 | 1021.7 |
| 20260503020519 | 6 | 167 | 8.0 | 9.7 | 0.00 | 0.00 | 0.00 | 46 | 1021.6 |
| 20260503015519 | 8 | 172 | 6.4 | 9.7 | 0.00 | 0.00 | 0.00 | 42 | 1021.4 |
| 20260503014530 | 10 | 189 | 6.4 | 6.4 | 0.00 | 0.00 | 0.00 | 37 | 1021.4 |
| 20260503013530 | 11 | 191 | 3.2 | 4.8 | 0.00 | 0.00 | 0.00 | 30 | 1021.3 |
| 20260503012530 | 12 | 169 | 4.8 | 4.8 | 0.00 | 0.00 | 0.00 | 25 | 1021.3 |
| 20260503011530 | 12 | 206 | 6.4 | 8.0 | 0.00 | 0.00 | 0.00 | 25 | 1021.2 |
| 20260503010517 | 13 | 251 | 4.8 | 6.4 | 0.00 | 0.00 | 0.00 | 23 | 1021.2 |
| 20260503005517 | 13 | 6 | 3.2 | 4.8 | 0.00 | 0.00 | 0.00 | 20 | 1021.2 |
| 20260503004520 | 13 | 190 | 4.8 | 8.0 | 0.00 | 0.00 | 0.00 | 23 | 1021.3 |
| 20260503003520 | 13 | 242 | 8.0 | 16.1 | 0.00 | 0.00 | 0.00 | 23 | 1021.3 |
| 20260503002521 | 13 | 225 | 6.4 | 11.3 | 0.00 | 0.00 | 0.00 | 23 | 1021.3 |
| 20260503001518 | 13 | 157 | 4.8 | 8.0 | 0.00 | 0.00 | 0.00 | 22 | 1021.3 |
| 20260503000518 | 13 | 48 | 3.2 | 6.4 | 0.00 | 0.00 | 0.00 | 21 | 1021.4 |
| 20260502235541 | 13 | 12 | 6.4 | 9.7 | 0.00 | 0.00 | 0.00 | 21 | 1021.5 |
| 20260502234521 | 13 | 359 | 4.8 | 9.7 | 0.00 | 0.00 | 0.00 | 20 | 1021.6 |
| 20260502233519 | 13 | 108 | 3.2 | 6.4 | 0.00 | 0.00 | 0.00 | 20 | 1021.6 |
| 20260502232522 | 12 | 175 | 8.0 | 12.9 | 0.00 | 0.00 | 0.00 | 23 | 1021.6 |
| 20260502231522 | 13 | 175 | 8.0 | 12.9 | 0.00 | 0.00 | 0.00 | 24 | 1021.6 |
| 20260502230522 | 13 | 230 | 8.0 | 14.5 | 0.00 | 0.00 | 0.00 | 24 | 1021.7 |
| 20260502225522 | 12 | 154 | 9.7 | 14.5 | 0.00 | 0.00 | 0.00 | 20 | 1021.8 |
| 20260502224523 | 12 | 182 | 8.0 | 14.5 | 0.00 | 0.00 | 0.00 | 21 | 1021.7 |
| 20260502223523 | 13 | 167 | 9.7 | 16.1 | 0.00 | 0.00 | 0.00 | 19 | 1021.7 |
| 20260502222520 | 13 | 129 | 3.2 | 8.0 | 0.00 | 0.00 | 0.00 | 20 | 1021.9 |
| 20260502221517 | 13 | 137 | 8.0 | 14.5 | 0.00 | 0.00 | 0.00 | 20 | 1022.0 |
| 20260502220517 | 13 | 124 | 4.8 | 12.9 | 0.00 | 0.00 | 0.00 | 19 | 1022.1 |
| 20260502215518 | 12 | 170 | 4.8 | 11.3 | 0.00 | 0.00 | 0.00 | 21 | 1022.3 |
| 20260502214518 | 12 | 137 | 4.8 | 11.3 | 0.00 | 0.00 | 0.00 | 21 | 1022.5 |
| 20260502213524 | 12 | 149 | 6.4 | 14.5 | 0.00 | 0.00 | 0.00 | 19 | 1022.7 |
| 20260502212518 | 12 | 160 | 6.4 | 11.3 | 0.00 | 0.00 | 0.00 | 22 | 1022.8 |
| 20260502211518 | 12 | 226 | 8.0 | 14.5 | 0.00 | 0.00 | 0.00 | 24 | 1023.0 |
| 20260502210519 | 12 | 236 | 8.0 | 16.1 | 0.00 | 0.00 | 0.00 | 25 | 1023.1 |
| 20260502205522 | 12 | 119 | 3.2 | 6.4 | 0.00 | 0.00 | 0.00 | 22 | 1023.3 |
| 20260502204539 | 11 | 18 | 6.4 | 14.5 | 0.00 | 0.00 | 0.00 | 22 | 1023.4 |
| 20260502203519 | 12 | 29 | 8.0 | 16.1 | 0.00 | 0.00 | 0.00 | 24 | 1023.4 |
| 20260502202519 | 11 | 54 | 8.0 | 16.1 | 0.00 | 0.00 | 0.00 | 25 | 1023.5 |
| 20260502201520 | 11 | 0 | 8.0 | 11.3 | 0.00 | 0.00 | 0.00 | 25 | 1023.6 |
| 20260502200519 | 11 | 196 | 6.4 | 14.5 | 0.00 | 0.00 | 0.00 | 26 | 1023.7 |
| 20260502195521 | 11 | 204 | 9.7 | 22.5 | 0.00 | 0.00 | 0.00 | 26 | 1023.7 |
| 20260502194520 | 11 | 198 | 11.3 | 24.1 | 0.00 | 0.00 | 0.00 | 29 | 1023.7 |
| 20260502193520 | 11 | 260 | 8.0 | 20.9 | 0.00 | 0.00 | 0.00 | 29 | 1023.9 |
| 20260502192521 | 10 | 219 | 8.0 | 12.9 | 0.00 | 0.00 | 0.00 | 28 | 1024.0 |
| 20260502191537 | 10 | 181 | 12.9 | 24.1 | 0.00 | 0.00 | 0.00 | 28 | 1024.0 |
| 20260502190538 | 10 | 204 | 9.7 | 22.5 | 0.00 | 0.00 | 0.00 | 28 | 1024.2 |
| 20260502185521 | 10 | 283 | 8.0 | 24.1 | 0.00 | 0.00 | 0.00 | 28 | 1024.3 |
| 20260502184521 | 10 | 54 | 6.4 | 14.5 | 0.00 | 0.00 | 0.00 | 26 | 1024.5 |
| 20260502183521 | 10 | 173 | 6.4 | 12.9 | 0.00 | 0.00 | 0.00 | 26 | 1024.6 |
| 20260502182542 | 9 | 52 | 4.8 | 14.5 | 0.00 | 0.00 | 0.00 | 28 | 1024.8 |
| 20260502181538 | 9 | 186 | 9.7 | 19.3 | 0.00 | 0.00 | 0.00 | 30 | 1024.8 |
| 20260502180542 | 10 | 206 | 8.0 | 12.9 | 0.00 | 0.00 | 0.00 | 29 | 1025.0 |
| 20260502163517 | 7 | 206 | 8.0 | 14.5 | 0.00 | 0.00 | 0.00 | 33 | 1025.4 |
| 20260502162517 | 7 | 231 | 6.4 | 14.5 | 0.00 | 0.00 | 0.00 | 35 | 1025.4 |
| 20260502161524 | 7 | 200 | 8.0 | 14.5 | 0.00 | 0.00 | 0.00 | 35 | 1025.5 |
| 20260502160524 | 7 | 203 | 6.4 | 12.9 | 0.00 | 0.00 | 0.00 | 33 | 1025.4 |
| 20260502151608 | 6 | 158 | 1.6 | 4.8 | 0.00 | 0.00 | 0.00 | 49 | 1025.8 |
| 20260502150528 | 5 | 266 | 3.2 | 6.4 | 0.00 | 0.00 | 0.00 | 58 | 1025.7 |
| 20260502130530 | -1 | 115 | 3.2 | 4.8 | 0.00 | 0.00 | 0.00 | 82 | 1025.5 |
| 20260502123531 | -3 | 134 | 4.8 | 8.0 | 0.00 | 0.00 | 0.00 | 86 | 1025.1 |
| 20260502122531 | -3 | 124 | 4.8 | 6.4 | 0.00 | 0.00 | 0.00 | 86 | 1025.1 |
| 20260502121523 | -4 | 133 | 4.8 | 8.0 | 0.00 | 0.00 | 0.00 | 87 | 1025.1 |
| 20260502120531 | -4 | 138 | 6.4 | 8.0 | 0.00 | 0.00 | 0.00 | 87 | 1025.2 |
| 20260502115552 | -5 | 159 | 4.8 | 8.0 | 0.00 | 0.00 | 0.00 | 86 | 1025.1 |
| 20260502114532 | -5 | 140 | 3.2 | 3.2 | 0.00 | 0.00 | 0.00 | 87 | 1025.0 |
| 20260502113532 | -5 | 127 | 3.2 | 4.8 | 0.00 | 0.00 | 0.00 | 87 | 1025.0 |
| 20260502112517 | -4 | 169 | 3.2 | 4.8 | 0.00 | 0.00 | 0.00 | 86 | 1024.9 |
| 20260502111517 | -3 | 176 | 4.8 | 6.4 | 0.00 | 0.00 | 0.00 | 85 | 1024.9 |
| 20260502110518 | -4 | 152 | 4.8 | 6.4 | 0.00 | 0.00 | 0.00 | 88 | 1025.0 |
| 20260502105518 | -5 | 182 | 3.2 | 4.8 | 0.00 | 0.00 | 0.00 | 88 | 1025.0 |
| 20260502104518 | -5 | 138 | 3.2 | 4.8 | 0.00 | 0.00 | 0.00 | 88 | 1024.9 |
| 20260502103518 | -5 | 137 | 3.2 | 6.4 | 0.00 | 0.00 | 0.00 | 88 | 1024.9 |
| 20260502102518 | -5 | 167 | 4.8 | 4.8 | 0.00 | 0.00 | 0.00 | 88 | 1024.9 |
| 20260502101519 | -4 | 220 | 1.6 | 3.2 | 0.00 | 0.00 | 0.00 | 87 | 1024.8 |
| 20260502100519 | -3 | 140 | 4.8 | 4.8 | 0.00 | 0.00 | 0.00 | 87 | 1024.8 |
| 20260502091520 | -4 | 147 | 4.8 | 4.8 | 0.00 | 0.00 | 0.00 | 87 | 1024.7 |
| 20260502090540 | -4 | 208 | 4.8 | 6.4 | 0.00 | 0.00 | 0.00 | 88 | 1024.6 |
| 20260502071522 | -1 | 154 | 4.8 | 4.8 | 0.00 | 0.00 | 0.00 | 85 | 1024.9 |
| 20260502070523 | -1 | 128 | 1.6 | 6.4 | 0.00 | 0.00 | 0.00 | 85 | 1024.7 |
| 20260502065516 | -1 | 141 | 8.0 | 9.7 | 0.00 | 0.00 | 0.00 | 84 | 1024.6 |
| 20260502064516 | -1 | 139 | 8.0 | 9.7 | 0.00 | 0.00 | 0.00 | 84 | 1024.5 |
| 20260502063523 | -1 | 138 | 6.4 | 9.7 | 0.00 | 0.00 | 0.00 | 83 | 1024.6 |
| 20260502062523 | -1 | 126 | 6.4 | 11.3 | 0.00 | 0.00 | 0.00 | 84 | 1024.5 |
| 20260502061523 | -1 | 130 | 6.4 | 9.7 | 0.00 | 0.00 | 0.00 | 84 | 1024.4 |
| 20260502060517 | -1 | 138 | 8.0 | 9.7 | 0.00 | 0.00 | 0.00 | 84 | 1024.4 |
| 20260502055517 | -1 | 136 | 8.0 | 11.3 | 0.00 | 0.00 | 0.00 | 85 | 1024.4 |
| 20260502054518 | -1 | 141 | 8.0 | 9.7 | 0.00 | 0.00 | 0.00 | 85 | 1024.4 |
| 20260502053524 | -1 | 134 | 6.4 | 8.0 | 0.00 | 0.00 | 0.00 | 85 | 1024.4 |
| 20260502052524 | -1 | 179 | 6.4 | 6.4 | 0.00 | 0.00 | 0.00 | 85 | 1024.4 |
| 20260502051524 | -1 | 151 | 4.8 | 6.4 | 0.00 | 0.00 | 0.00 | 87 | 1024.4 |
| 20260502050525 | -1 | 188 | 4.8 | 8.0 | 0.00 | 0.00 | 0.00 | 86 | 1024.6 |
| 20260502045518 | -1 | 175 | 6.4 | 12.9 | 0.00 | 0.00 | 0.00 | 86 | 1024.6 |
| 20260502044519 | -1 | 141 | 6.4 | 8.0 | 0.00 | 0.00 | 0.00 | 85 | 1024.6 |
| 20260502043525 | 0 | 142 | 6.4 | 8.0 | 0.00 | 0.00 | 0.00 | 84 | 1024.5 |
| 20260502042545 | 0 | 141 | 6.4 | 6.4 | 0.00 | 0.00 | 0.00 | 83 | 1024.5 |
| 20260502041525 | 0 | 134 | 4.8 | 6.4 | 0.00 | 0.00 | 0.00 | 84 | 1024.5 |
| 20260502040545 | 0 | 133 | 4.8 | 8.0 | 0.00 | 0.00 | 0.00 | 84 | 1024.4 |